Regional Weather Roundup
Issued by NWS

Home | Current Version | Previous Version | Graphics & Text | Print | Product List | Glossary Off
Versions: 1 2 3 4 5 6 7 8 9 10 11 12 13 14 15 16 17 18 19 20 21 22 23 24 25 26 27 28 29 30 31 32 33 34 35 36 37 38 39 40 41 42 43 44 45 46 47 48 49 50

181
ASUS45 KPSR 031410
RWRAZ

ARIZONA HOURLY REGIONAL WEATHER ROUNDUP
NATIONAL WEATHER SERVICE PHOENIX AZ
700 AM MST TUE MAY 03 2016

NOTE: FAIR INDICATES FEW OR NO CLOUDS BELOW 12,000 FEET WITH NO
SIGNIFICANT WEATHER AND/OR OBSTRUCTIONS TO VISIBILITY.

AZZ001>003-036-031500-
NORTHWEST ARIZONA

CITY           SKY/WX    TMP DP  RH WIND       PRES   REMARKS
BULLHEAD CITY  SUNNY     72  39  30 N16       30.01R
KINGMAN        SUNNY     56  42  59 CALM      30.10R
$$

AZZ004>008-015-016-018-031500-
NORTH CENTRAL ARIZONA

CITY           SKY/WX    TMP DP  RH WIND       PRES   REMARKS
GRAND CANYON   SUNNY     48  35  60 NE9       30.24R
WILLIAMS       SUNNY     43  34  70 S7        30.28S
PRESCOTT       SUNNY     44  38  79 CALM      30.16R
FLAGSTAFF      SUNNY     40  37  89 E6        30.24R
PAYSON         SUNNY     55  36  47 NE8       30.16R
PAGE           SUNNY     54  38  54 N3        30.20R
$$

AZZ009>014-017-031500-
NORTHEAST ARIZONA

CITY           SKY/WX    TMP DP  RH WIND       PRES   REMARKS
WINSLOW        SUNNY     46  43  89 CALM      30.21R
SAINT JOHNS    SUNNY     43  40  89 CALM      30.20R
WINDOW ROCK    SUNNY     44  35  70 N9        30.25R
SHOW LOW       SUNNY     37  36  93 CALM      30.23R
$$

AZZ023-031500-
GREATER PHOENIX AREA

CITY           SKY/WX    TMP DP  RH WIND       PRES   REMARKS
PHOENIX        SUNNY     69  43  38 SW5       29.93R
GLENDALE       SUNNY     72  39  30 N6        29.95R
LUKE AFB       SUNNY     66  43  42 N6        29.93R
DEER VALLEY    SUNNY     68  38  33 N7        29.95R
SCOTTSDALE     SUNNY     71  41  33 CALM      29.96R
MESA-FALCON    SUNNY    N/A N/A N/A N12G17    29.92R
CHANDLER       SUNNY     70  41  35 N8        29.94R
$$

AZZ027-028-031500-
SOUTHWEST MARICOPA COUNTY AND PINAL COUNTY

CITY           SKY/WX    TMP DP  RH WIND       PRES   REMARKS
CASA GRANDE    SUNNY    N/A N/A N/A MISG        N/A
GILA BEND      SUNNY     66  36  32 NE5       29.92R
$$

AZZ503-504-507>509-031500-
SOUTHEAST ARIZONA

CITY           SKY/WX    TMP DP  RH WIND       PRES   REMARKS
TUCSON         SUNNY     61  30  31 SE8       30.01R
DAVIS-MONTHAN  SUNNY     61  31  32 SE7       29.99R
NOGALES        SUNNY     51  28  41 CALM      30.04R
SIERRA VISTA   SUNNY     61  29  30 N5        30.09R
DOUGLAS        SUNNY     55  28  35 CALM      30.06R
SAFFORD        SUNNY     61  32  33 NW5       30.05R
$$

AZZ020-021-025-026-031-031500-
SOUTHWEST ARIZONA

CITY           SKY/WX    TMP DP  RH WIND       PRES   REMARKS
YUMA           SUNNY     75  39  27 NE6       29.89R
$$

CAZ031-033-041-043-047-048-061-031500-
SOUTHERN CALIFORNIA

CITY           SKY/WX    TMP DP  RH WIND       PRES   REMARKS
DOWNTOWN L.A.  SUNNY     59  55  87 CALM      29.97R
L.A. AIRPORT   MOSUNNY   59  56  89 SW3       29.97R
SAN DIEGO      MOSUNNY   60  54  80 NW5       29.98R
BURBANK        SUNNY     60  52  74 CALM      29.97R
ONTARIO        MOSUNNY   60  51  72 NE5       29.97R
RIVERSIDE      SUNNY     59  50  72 NE3       29.97R
PALM SPRINGS   SUNNY     70  42  36 NW7       29.95R
EL CENTRO NAS  SUNNY     68  37  32 SW5       29.91R
IMPERIAL       SUNNY     66  45  46 W5        29.89R
BLYTHE         SUNNY     69  37  30 W3        29.93R
NEEDLES        SUNNY     73  40  30 N6        29.98R
$$

NVZ020-UTZ003-031500-
SOUTHERN NEVADA-UTAH

CITY           SKY/WX    TMP DP  RH WIND       PRES   REMARKS
LAS VEGAS      SUNNY     65  39  38 CALM      30.05R
SALT LAKE CITY SUNNY     53  36  52 SE6       30.24R
$$

NMZ009-TXZ055-031500-
NEW MEXICO-WEST TEXAS

CITY           SKY/WX    TMP DP  RH WIND       PRES   REMARKS
ALBUQUERQUE    MOSUNNY   51  38  60 CALM      30.21R
EL PASO        SUNNY     58  31  35 N6        30.13R
$$


........................KEY........................
SKY/WX - SKY CONDITION/WEATHER
TMP    - TEMPERATURE IN FAHRENHEIT
DP     - DEW POINT IN FAHRENHEIT
RH     - RELATIVE HUMIDITY IN PERCENT
WIND   - DIRECTION AND SPEED IN MILES PER HOUR (MPH)
VRB    - VARIABLE WIND DIRECTION
PRES   - MEAN SEA LEVEL PRESSURE IN INCHES OF MERCURY
         F - FALLING PRESSURE   R - RISING PRESSURE
         S - STEADY PRESSURE
VSB    - VISIBILITY IN MILES
HX     - HEAT INDEX IN FAHRENHEIT
WCI    - WIND CHILL INDEX IN FAHRENHEIT
TC     - TEMPERATURE IN CELSIUS WHICH IS ALSO KNOWN AS
         TEMPERATURE IN CENTIGRADE
AFB    - AIR FORCE BASE
         LUKE AFB IS LUKE AIR FORCE BASE
         DAVIS-MONTHAN IS DAVIS-MONTHAN AIR FORCE BASE
NAS    - NAVAL AIR STATION
         EL CENTRO NAS IS EL CENTRO NAVAL AIR STATION
N/A    - NOT AVAILABLE





USA.gov is the U.S. government's official web portal to all federal, state and local government web resources and services.